Погода Верхний Баскунчак

Погода Верхний Баскунчак : погода сейчас, прогноз погоды и архив. Всё, что Вы хотите узнать о погоде Верхний Баскунчак!

Хотите узнать прогноз погоды Верхний Баскунчак? Тогда Вам сюда: Погода Верхний Баскунчак

Поиск расширенной информации на нашем сайте:

Другие новости

Новости СМИ2

Главная страница сайта

Новости сайта

02.10.2013

Напоминаем, что на нашем новом сайте вы можете получить высокодетализированные прогнозы погоды по пунктам России, СНГ и мира (включающие важные для авиации метеовеличины, такие как направление и скорость ветра, видимость, явления погоды, количество и форма облачности, нижняя и верхняя граница облачности), а также ознакомиться с разнообразными материалами по авиационной метеорологии и подборкой полезных ссылок на эту тему.

Сайт Метеоцентр.Азия посвящён разработке технологий оптимизации авиаметеорологического обслуживания, включая проектирование и перспективное создание нескольких автоматизированных авиаметеорологических систем:
- система выпуска высокодетальных прогностических карт явлений погоды для нижнего воздушного пространства по России и ближнему зарубежью;
- система верификации прогнозов TAF (выпускаемых синоптиками официальных АМСГ РФ и ближнего зарубежья) и AUTOTAF (выпускаемых сайтом Метеоцентр.Азия) - выявление ошибок, онлайн-сопоставление с фактической погодой METAR, автоматическое внесение коррективов в прогнозы при резком отклонении фактической погоды от прогноза, подсчёт оправдываемости прогнозов по элементам и в целом;
- система обработки, анализа и отображения авиаметеорологической информации для применения провайдерами метеорологической информации.


Погода Верхний Баскунчак - сегодня

Время (UTC), дата Ветер
(°,м/с) 
Видим.   Явления Облачность Т
(°С)
Тd
(°С)
f(%) Тe
(°С)
Pmin
(гПа)
dP
(гПа)
Po
(мм)
O2
(г/м3)
Тmin Tmax R s Состояние
почвы
06 21.03.17 020 (С) 20000 м    10/0 средняя 
[Ac und]
+2.1 -1 80 +1  1009.7  -0.1  754  302  +1.5         
09 21.03.17 360 (С) 20000 м    10/10 600 м 
[Sc]
+2.3 -1.1 78 +2  1010.1  0.5  754  302           
12 21.03.17 360 (С) 2000 м  слаб. снег{ливн. осадки}  10/10 300 м 
[Frnb|Ns]
-0 -0.5 96 -1  1009.9  -0.3  754  304           
15 21.03.17 340 (С) 2000 м  снег  10/10 300 м 
[Frnb|Ns]
-0.4 -0.7 98 -1  1009.7  -0.2  754  304    +2.4     
18 21.03.17 тихо ()   2000 м  дымка{ливн. осадки, снег}  10/10 600 м 
[Sc]
-0.1 -0.4 98 -0  1009.6  -0.1  754  304           
21 21.03.17 тихо ()   2000 м  дымка  10/10 600 м 
[Sc]
-0.4 -0.8 97 -0  1009.1  -0.5  753  304           
00 22.03.17 тихо ()   4000 м  дымка  ясно 600 м 
[Sc]
-0.8 -1.6 94 -1  1009.3  0.3  754  305           
03 22.03.17 тихо ()   4000 м  дымка  10/10 600 м 
[Sc]
-0.9 -1.4 96 -1  1010.5  1.1  755  305  -1    сухой снег
50-90% 
06 22.03.17 360 (С) 4000 м  дымка  10/10 600 м 
[Sc]
-0.7 -1.2 96 -2  1011.8  1.3  755  305           
09 22.03.17 360 (С) 4000 м  дымка  10/10 600 м 
[Sc]
-0.4 -0.9 96 -2  1012.8  756  305           
12 22.03.17 360 (С) 4000 м  в посл. час ливневой снег  10/10 600 м кучево-дожд. 
[Cb calv]
+0.2 -0.3 96 -1  1014  1.2  757  305           
15 22.03.17 340 (С) 2000 м  дымка{ливн. осадки}  10/10 600 м 
[Sc]
+0.4 +0.1 98 -1  1015.4  1.4  758  305    +0.4  0.4     
18 22.03.17 010 (С) 1000 м  слаб. ливневой дождь  10/10 600 м кучево-дожд. 
[Cb calv]
+1.4 +1.1 98 1017.4  2.1  760  304           
21 22.03.17 340 (С) 1000 м  дымка{ливн. осадки}  10/10 600 м 
[Sc]
+1.5 +1.3 99 +2  1018.7  1.2  761  305           
00 23.03.17 030 (СВ) 1000 м  дымка{ливн. осадки}  10/10 600 м 
[Sc]
+2 +1.8 99 +3  1019.6  0.9  761  304           
03 23.03.17 070 (В) 1000 м  дымка  10/10 600 м 
[Sc]
+1.8 +1.6 99 +1  1021.2  1.6  763  305  +0.4      влажная 
06 23.03.17 110 (В) 1000 м  дымка  9/9 600 м 
[Sc]
+1.7 +1.2 96 +1  1022.7  1.5  764  306           
09 23.03.17 100 (В) 20000 м    8/4 600 м верхняя 
[Sc|Ci sp]
+4.8 -0.6 68 +4  1023.8  1.1  764  303           
12 23.03.17 200 (Ю) 20000 м    6/3 1000 м верхняя 
[Cu hum|Ci sp]
+6.3 -0.8 60 +6  1024.2  0.5  765  301           
15 23.03.17 250 (З) 20000 м    8/4 600 м верхняя 
[Sc|Ci sp]
+6.3 -1.1 59 +7  1025  0.7  765  302    +7.6       
18 23.03.17 320 (СЗ) 4000 м  дымка  4/0 верхняя 
[Ci sp]
+2.7 +1 89 +1  1025.8  0.8  766  305           
21 23.03.17 350 (С) 4000 м  дымка  ясно 
-0 -1 93 +1  1026.4  0.5  766  309           
00 24.03.17 120 (ЮВ) 4000 м  дымка  ясно 
+0.3 -0.5 94 +1  1026.8  0.4  767  309           
03 24.03.17 270 (З) 4000 м  дымка  6/0 верхняя 
[Ci sp]
-1 -1.5 96 1027.3  0.5  767  310  -1        влажная 
06 24.03.17 250 (З) 20000 м    6/0 верхняя 
[Ci sp]
+5.7 -0.2 66 +7  1027.9  0.7  768  303  -1.2         
Время (UTC), дата Ветер
(°,м/с) 
Видим.   Явления Облачность Т
(°С)
Тd
(°С)
f(%) Тe
(°С)
Pmin
(гПа)
dP
(гПа)
Po
(мм)
O2
(г/м3)
Тmin Tmax R s Состояние
почвы

Для получения пояснительной информации подведите курсор к названию столбца.

ПОГОДА Верхний Баскунчак - архив

Всё, что Вы хотите узнать о погоде Верхний Баскунчак - удобно и подробно!

Выберите нужную дату (начиная с 1 января 2015* года) и нажмите кнопку "Найти".
Будут отображены архивные сводки погоды по пункту Верхний Баскунчак, начиная с указанной даты.


Отображать данные в формате CSV (для использования в таблицах Excel)


Внимание! Наш архив погоды предназначен исключительно для личного некоммерческого использования в познавательных целях. Если Вам необходимы официальные справки о состоянии погоды (для производственных, юридических, коммерческих и т.п. целей), обращайтесь в органы Росгидромета.

*Примечание: данная дата относится к архиву по метеостанциям СССР (Россия, СНГ, Балтия).
Архив по метеостанциям Зарубежной Европы и Азии (кроме Китая) хранится 10 дней, по другим регионам земного шара (Китай, Африка, Америка, Австралия, Океания) - 1 день.

Верхний Баскунчак - район местоположения метеостанции


Название, широта, долгота, высота метеостанции:
Верхний Баскунчак 48.2°ш. 46.7°д. 34 м над ур. моря [Российская Федерация]

Дополнительная информация

В oтличие oт бoльшинства пoгoдных сайтoв мы публикуем пoдрoбную метеoинфoрмацию в детальнoм прoфессиoнальнoм фoрмате.

Характеристики температуры и влажнoсти вoздуха измеряются на высoте 2 м в тени вдали oт зданий и деревьев.
Скoрoсть ветра измеряется на высoте 10 м (на урoвне рoста челoвека скoрoсть ветра ниже в 1.5-2 раза). Если метеoстанция нахoдится в гoрoде или в лесу, тo скoрoсть ветра занижена на 2-4 м/с пo сравнению с oткрытым местoм. Скoрoсть ветра над акватoриями крупных рек и oзёр, а также на вершинах хoлмoв на 2-5 м/с выше, чем в oбычных услoвиях.
Атмoсфернoе давление в разных тoчках местнoсти мoжет значительнo oтличаться oт давления на метеoстанции, в зависимoсти oт услoвий рельефа (при пoдъёме на 10 м давление пoнижается примернo на 1 мм рт.ст.).